Terminal Aerodrome Forecast
Issued by NWS

Home | Current Version | Previous Version | Text Only | Print | Product List | Glossary On
Versions: 1 2 3 4 5 6 7 8 9 10 11 12 13 14 15 16 17 18 19 20 21 22 23 24 25 26 27 28 29 30 31 32 33 34 35 36 37 38 39 40 41 42 43 44 45 46 47
000
FTUS45 KBOU 271730
TAFAPA
TAF
KAPA 271730Z 2718/2818 32007KT P6SM SCT090 BKN150
     FM272100 36007KT P6SM SCT050 BKN090
      TEMPO 2721/2801 VRB20G35KT 5SM TSRA BKN050CB
     FM280200 05007KT P6SM SCT050 BKN080
     FM280400 16007KT P6SM SCT080 BKN150
     FM281600 35010KT P6SM FEW050 SCT090 BKN150=

USA.gov is the U.S. government's official web portal to all federal, state and local government web resources and services.